Showing default

COSMOS 2515, 41394

Orbit data source: Space-Track

COSMOS 2515, 41394 is a payload satellite owned by VVKO VKS (CIS) in SSO that was launched on Thu, 24 Mar 2016 UTC via a SOYUZ-2-1A launch vehicle from the Plesetsk Missile And Space Complex (PKMTR). Payload-class satellites include a variety of spacecraft equipped with specific instruments for various scientific and technological missions. These include communications satellites like Starlink; space stations such as the ISS; scientific satellites like the Hubble; Earth observation satellites from companies like Planet Labs, Umbra, and HawkEye 360; GPS; miniature CubeSats for education and research; and military/defense satellites.

Loading next visibility...
Identifier
41394, 2016-020A
Orbit
SSO
Country
Flag of CISCIS
Related business
Manufacturer
Arsenal
Mission
Operational Defense Imaging
Bus & Motor
BARS, AOCS
Mass
3,700 kg wet, ~3,500 kg dry
Launch date (UTC)
2016-03-24 (10 years ago)
Launch vehicle
SOYUZ-2-1A
Launch site
Plesetsk Missile And Space Complex (PKMTR)
Object type
Payload
Rocket body
Debris
Shape & HBR
Cyl + 2 Pan, 5.0 m
Radar Cross Section
20.881 m², Large (>1 m²)

Expand to show TLE details & history
Last TLE update: 13 hours ago

TLE from 13 hours ago
0 COSMOS 2515
1 41394U 16020A   25347.01130657  .00003948  00000-0  26566-3 0  9996
2 41394  97.9817 350.5242 0022958 208.7327 151.2637 15.07153204532362
Epoch: 2025-12-13T00:16Z
TLE epoch observation values (Epoch: 2025-12-13T00:16:16.887Z)
Latitude
0.00003°
Longitude
-95.49087°
Altitude
561.908 km
Speed
7.573 km/s
True Right ascension
23h 22m 05s
True Declination
0° 00' 00"
Sunlit
Object was in daylight at epoch
Visualization orbit readout
Latitude
Unknown
Longitude
Unknown
Altitude
Unknown
Speed
Unknown
Apparent Right ascension
Unknown
Apparent Declination
Unknown
Sunlit
N/A
Visualization observer readout
Local Sidereal Time
11:50:31
Azimuth
Unknown
Elevation
Unknown
Doppler factor
Unknown
Orbital elements
Apogee altitude
557.799 km
Perigee altitude
526.025 km
Semi-major axis
6,920.049 km
Eccentricity
0.0023
Inclination
97.9817°
RAAN
350.5242°
Arg. of periapsis
208.7327°
True anomaly
151.38987°
Mean anomaly
151.2637°
Eccentric anomaly
151.32681°
Mean motion
3.77033 °/min
Orbital period
95.48 mins
BSTAR
0.00026566
Loading maneuver chart data...
Computing Atmospheric mass density...
Loading historical data...
Loading historical data...
Loading historical data...
Loading historical data...
Loading historical data...
Loading historical data...
Loading historical data...
Other satellites on launch #20 in the year 2016 (2016-03-24 UTC)

Documentation

Showing up to 5 results
|